Location: Unspecified
(0.0000°N, 0.0000°E)
Time: 18:20:54
(UTC+00:00)

Courier 1B - Pass Details

Date: 03 October 2023
Orbit: 962 x 1208 km, 28.3° (Epoch: 28 November)

Event Time Altitude Azimuth Distance (km) Brightness Sun altitude
Rises 10:11:56 0° 296° (WNW) 3,821 10.4 65.4°
Maximum altitude 10:19:00 10° 343° (NNW) 2,960 10.0 67.1°
Drops below altitude 10° 10:19:07 10° 344° (NNW) 2,961 10.1 67.2°
Sets 10:26:22 0° 30° (NNE) 4,005 10.8 68.9°
